Weather History for Taunton, MA

Change the Weather History Date:

Saturday, March 30, 2013

  Actual Average Record
Temperature  
Mean Temperature 44 °F -  
Max Temperature 60 °F 53 °F 86 °F (1977)
Min Temperature 30 °F 33 °F 18 °F (1970)
Degree Days  
Heating Degree Days 22    
Moisture  
Dew Point 25 °F    
Average Humidity 54    
Maximum Humidity 93    
Minimum Humidity 16    
Precipitation  
Precipitation 0.00 in - - ()
Sea Level Pressure  
Sea Level Pressure 30.06 in    
Wind  
Wind Speed 5 mph (NNW)    
Max Wind Speed 14 mph    
Max Gust Speed 21 mph    
Visibility 8 miles    
Events      
Averages and records for this station are not official NWS values.
T = Trace of Precipitation, MM = Missing Value Source: NWS Daily Summary

Daily Weather History Graph

Daily Weather History Graph

Search for Another Location

Airport:

Trip Planner

Search our weather history database for the weather conditions in past years. The results will help you decide how hot, cold, wet, or windy it might be!

Date:

Astronomy

Mar. 30, 2013 Rise Set
Actual Time 6:29 AM EDT 7:07 PM EDT
Civil Twilight 6:01 AM EDT 7:35 PM EDT
Nautical Twilight 5:28 AM EDT 8:09 PM EDT
Astronomical Twilight 4:54 AM EDT 8:43 PM EDT
Moon 11:14 PM EDT (3/30) 8:19 AM EDT (3/30)
Length of Visible Light 13h 33m
Length of Day
12h 37m
Waning Gibbous, 86% of the Moon is Illuminated
Mar 30
Waning Gibbous
Apr 3
Last Quarter
Apr 10
New
Apr 18
First Quarter
Apr 25
Full

Hourly Weather History & Observations

Time (EDT) Temp. Windchill Dew Point Humidity Pressure Visibility Wind Dir Wind Speed Gust Speed Precip Events Conditions
12:52 AM 46.0 °F 43.1 °F 28.9 °F 51% 30.04 in 10.0 mi NW 5.8 mph - N/A   Overcast
1:52 AM 45.0 °F 41.8 °F 30.0 °F 56% 30.04 in 10.0 mi NW 5.8 mph - N/A   Overcast
2:52 AM 45.0 °F 42.6 °F 30.0 °F 56% 30.04 in 10.0 mi NW 4.6 mph - N/A   Overcast
3:52 AM 44.1 °F 41.5 °F 30.0 °F 58% 30.04 in 10.0 mi WNW 4.6 mph - N/A   Overcast
4:52 AM 44.1 °F 41.5 °F 30.0 °F 58% 30.04 in 10.0 mi WNW 4.6 mph - N/A   Overcast
5:52 AM 43.0 °F 39.5 °F 28.9 °F 58% 30.04 in 10.0 mi NW 5.8 mph - N/A   Overcast
6:52 AM 41.0 °F 39.0 °F 28.0 °F 60% 30.06 in 10.0 mi WNW 3.5 mph - N/A   Partly Cloudy
7:52 AM 44.1 °F 41.5 °F 28.9 °F 55% 30.07 in 10.0 mi Variable 4.6 mph - N/A   Clear
8:52 AM 48.0 °F - 28.0 °F 46% 30.07 in 10.0 mi NNW 12.7 mph 19.6 mph N/A   Clear
9:52 AM 50.0 °F - 26.1 °F 39% 30.07 in 10.0 mi North 9.2 mph - N/A   Clear
10:52 AM 53.1 °F - 24.1 °F 32% 30.06 in 10.0 mi North 8.1 mph - N/A   Clear
11:52 AM 53.1 °F - 19.9 °F 27% 30.05 in 10.0 mi NNW 8.1 mph - N/A   Mostly Cloudy
1:52 PM 57.9 °F - 15.1 °F 19% 30.02 in 10.0 mi NW 13.8 mph - N/A   Scattered Clouds
2:52 PM 57.9 °F - 12.9 °F 17% 30.01 in 10.0 mi Variable 4.6 mph - N/A   Scattered Clouds
3:52 PM 57.9 °F - 10.9 °F 16% 30.01 in 10.0 mi WNW 6.9 mph - N/A   Clear
4:52 PM 57.9 °F - 10.9 °F 16% 30.01 in 10.0 mi NNW 10.4 mph 20.7 mph N/A   Clear
5:52 PM 55.9 °F - 16.0 °F 21% 30.01 in 10.0 mi East 9.2 mph - N/A   Mostly Cloudy
6:52 PM 51.1 °F - 26.1 °F 38% 30.03 in 10.0 mi East 5.8 mph - N/A   Overcast
7:52 PM 45.0 °F 43.5 °F 30.0 °F 56% 30.05 in 10.0 mi ESE 3.5 mph - N/A   Mostly Cloudy
8:52 PM 37.9 °F - 30.9 °F 76% 30.08 in 10.0 mi Calm Calm - N/A   Partly Cloudy
9:52 PM 35.1 °F - 30.0 °F 82% 30.09 in 10.0 mi Calm Calm - N/A   Clear
10:52 PM 32.0 °F - 28.0 °F 85% 30.10 in 10.0 mi Calm Calm - N/A   Clear
11:44 PM 30.9 °F - 28.0 °F 89% 30.10 in 1.5 mi Calm Calm - N/A   Clear
11:48 PM 30.2 °F - 28.4 °F 93% 30.10 in 0.8 mi Calm Calm - N/A   Clear
11:52 PM 30.9 °F - 28.0 °F 89% 30.10 in 0.8 mi Calm Calm - N/A   Clear
11:56 PM 32.0 °F - 28.0 °F 85% 30.10 in 1.8 mi Calm Calm - N/A   Clear
11:58 PM 32.0 °F - 28.0 °F 85% 30.10 in 4.0 mi Calm Calm - N/A   Clear